[[{"header":{"parameterUnit":"m.s-1","parameterCategory":1,"la1":30.2991,"la2":30.254,"lo1":-89.0895,"lo2":-89.0444,"dy":0.0017,"dx":0.0017,"nx":28,"ny":28,"refTime":"2025-12-28T09:00:00:Z","depth":0,"parameterNumber":2,"parameterNumberName":"U-component_of_WINDS"},"data":[0,0,0,0,0,0,0,0,0,0,0,0,0,0,0,0,0,0,0,0,0,0,0,0,0,0,0,0,0,0,0,0,0,0,0,0,0,0,0,0,0,0,0,0,0,0,0,0,0,0,0,0,0,0,0,0,0,0,-1.5934,-1.5934,0,-1.5924,-1.5923,-1.5923,-1.5903,-1.5902,-1.5902,-1.5901,-1.589,-1.589,-1.589,0,0,0,0,0,0,0,0,0,0,0,0,0,-1.5936,-1.5936,-1.5934,-1.5934,-1.5934,-1.5924,-1.5923,-1.5923,-1.5903,-1.5902,-1.5902,-1.5901,-1.589,-1.589,-1.589,0,0,0,0,0,0,0,0,0,0,0,0,0,-1.5931,-1.5936,-1.5934,-1.5922,-1.5921,-1.5924,-1.5923,-1.5923,-1.5903,-1.5902,-1.5902,-1.5901,-1.589,-1.589,-1.589,-1.5903,0,0,-1.589,-1.589,0,0,0,0,0,0,0,0,-1.5931,-1.5931,-1.5924,-1.5923,-1.5922,-1.5914,-1.592,-1.5916,-1.5903,-1.591,-1.5901,-1.5901,-1.5898,-1.5898,-1.5897,-1.5902,-1.5902,-1.589,-1.589,-1.589,-1.589,0,0,0,0,0,0,0,-1.5932,-1.5931,-1.593,-1.5924,-1.5923,-1.5917,-1.5916,-1.5919,-1.5907,-1.5909,-1.5908,-1.5907,-1.5897,-1.5897,-1.5897,-1.5902,-1.589,-1.589,-1.589,-1.5891,-1.5917,-1.5918,0,0,0,0,0,0,-1.5934,-1.5932,-1.593,-1.5929,-1.5925,-1.5918,-1.5916,-1.5917,-1.5907,-1.5905,-1.5907,-1.5906,-1.5897,-1.5896,-1.5896,-1.591,-1.589,-1.5891,-1.5891,-1.5917,-1.5917,-1.5918,0,0,0,0,0,0,-1.5934,-1.5934,-1.593,-1.593,-1.5929,-1.5918,-1.5919,-1.5917,-1.5916,-1.5906,-1.5904,-1.5909,-1.5897,-1.5896,-1.5901,-1.5909,-1.5891,-1.5891,-1.5916,-1.5917,-1.5918,-1.5939,0,0,0,0,0,0,-1.5934,-1.5934,-1.5939,-1.593,-1.5929,-1.5936,-1.592,-1.5917,-1.5917,-1.5915,-1.5907,-1.5905,-1.5896,-1.5901,-1.5902,-1.5909,-1.5891,-1.5915,-1.5916,-1.5917,-1.5937,-1.594,-1.5943,0,0,0,0,0,-1.5934,-1.5944,-1.5939,-1.5939,-1.5935,-1.5937,-1.5936,-1.5926,-1.5918,-1.5922,-1.5916,-1.5905,-1.5909,-1.5902,-1.5902,-1.591,-1.5914,-1.5916,-1.5917,-1.5936,-1.5939,-1.5943,0,0,0,0,0,0,-1.5953,-1.5943,-1.5937,-1.5945,-1.5942,-1.5933,-1.5938,-1.593,-1.5929,-1.5927,-1.5914,-1.5913,-1.592,-1.5916,-1.5908,-1.5922,-1.591,-1.5912,-1.5924,-1.5928,-1.593,-1.593,-1.5891,0,0,0,0,0,-1.5958,-1.5961,-1.5952,-1.596,-1.5959,-1.5949,-1.5949,-1.5942,-1.5938,-1.5936,-1.593,-1.5927,-1.5927,-1.5927,-1.5927,-1.5937,-1.5935,-1.5943,-1.5946,-1.5948,-1.5949,-1.5954,-1.5957,-1.5923,-1.5923,-1.5923,0,0,-1.5969,-1.5964,-1.5966,-1.5964,-1.596,-1.5963,-1.5948,-1.5951,-1.5952,-1.5937,-1.5941,-1.5937,-1.5932,-1.594,-1.5943,-1.5937,-1.5958,-1.595,-1.5952,-1.5951,-1.5955,-1.5959,-1.5961,-1.5924,-1.5924,-1.5924,0,0,-1.5989,-1.5986,-1.5992,-1.599,-1.5985,-1.5979,-1.5981,-1.5973,-1.597,-1.5975,-1.5963,-1.5965,-1.5966,-1.5963,-1.5962,-1.5983,-1.5973,-1.5983,-1.5997,-1.6002,-1.6005,-1.6007,-1.6014,-1.6016,-1.5985,-1.5985,-1.5985,0,-1.6002,-1.6006,-1.5996,-1.6,-1.5999,-1.5987,-1.5993,-1.5991,-1.5986,-1.5986,-1.5979,-1.5981,-1.5977,-1.5984,-1.5989,-1.5989,-1.599,-1.5983,-1.6005,-1.6007,-1.6009,-1.6016,-1.6018,-1.5986,-1.5986,-1.5985,-1.5985,0,-1.6022,-1.6025,-1.603,-1.6027,-1.6027,-1.6032,-1.6024,-1.6025,-1.6019,-1.6013,-1.6018,-1.6013,-1.6012,-1.6013,-1.6007,-1.602,-1.6016,-1.6008,-1.5995,-1.6014,-1.6019,-1.6022,-1.5987,-1.5987,-1.5987,-1.5986,0,0,-1.6052,-1.6044,-1.6046,-1.6045,-1.604,-1.6042,-1.6047,-1.6046,-1.6047,-1.6045,-1.6048,-1.6051,-1.6043,-1.6042,-1.6035,-1.6039,-1.6056,-1.6031,-1.603,-1.6034,-1.6069,-1.6074,-1.6077,-1.605,-1.6051,-1.6051,-1.6069,0,-1.607,-1.6077,-1.607,-1.6079,-1.6081,-1.607,-1.6074,-1.6071,-1.6067,-1.6068,-1.6063,-1.6065,-1.6055,-1.6054,-1.6059,-1.6053,-1.6062,-1.6052,-1.6052,-1.6052,-1.6052,-1.608,-1.6085,-1.6103,-1.6071,-1.6072,-1.6072,0,-1.6091,-1.609,-1.61,-1.6095,-1.6096,-1.61,-1.6098,-1.61,-1.6097,-1.6094,-1.6093,-1.6085,-1.609,-1.6079,-1.6085,-1.6078,-1.6078,-1.6076,-1.6076,-1.6074,-1.6062,-1.6078,-1.6108,-1.611,-1.6076,-1.6075,-1.6075,0,-1.611,-1.6112,-1.6118,-1.6117,-1.6112,-1.6115,-1.6113,-1.611,-1.611,-1.6109,-1.6109,-1.6109,-1.6109,-1.6109,-1.6101,-1.6095,-1.6108,-1.6097,-1.6105,-1.6105,-1.6106,-1.6106,-1.6135,-1.6109,-1.6109,-1.6109,-1.6109,0,-1.613,-1.6136,-1.6127,-1.613,-1.6137,-1.6129,-1.6135,-1.6132,-1.613,-1.6132,-1.6123,-1.6126,-1.6116,-1.6118,-1.6112,-1.6118,-1.6118,-1.6115,-1.6113,-1.6115,-1.6115,-1.6113,-1.6111,-1.611,-1.611,-1.611,-1.6109,0,-1.6152,-1.6146,-1.6152,-1.6147,-1.6146,-1.6151,-1.6146,-1.6149,-1.6145,-1.6149,-1.6149,-1.6142,-1.6144,-1.6137,-1.6137,-1.6133,-1.6141,-1.6138,-1.6142,-1.6141,-1.6148,-1.6147,-1.6176,-1.618,-1.6153,-1.6153,-1.6153,0,-1.6164,-1.6168,-1.6164,-1.6165,-1.6164,-1.6166,-1.6167,-1.616,-1.616,-1.6158,-1.6162,-1.6163,-1.6163,-1.6166,-1.6161,-1.6162,-1.6157,-1.6168,-1.6157,-1.6159,-1.6156,-1.6155,-1.6156,-1.6169,-1.617,-1.617,-1.617,0,-1.6186,-1.6183,-1.6184,-1.6185,-1.6186,-1.6186,-1.6185,-1.6187,-1.6179,-1.6181,-1.6182,-1.6183,-1.6184,-1.6185,-1.6184,-1.6182,-1.6175,-1.6174,-1.6175,-1.6176,-1.6178,-1.6176,-1.6147,-1.6173,-1.6172,-1.6172,-1.6172,-1.6172,-1.6202,-1.6205,-1.6203,-1.6205,-1.6204,-1.6204,-1.6207,-1.6204,-1.6205,-1.6205,-1.6201,-1.6204,-1.6202,-1.6201,-1.62,-1.6202,-1.6197,-1.6199,-1.6199,-1.62,-1.6201,-1.618,-1.6202,-1.6202,-1.6201,-1.6201,-1.6201,0,-1.6222,-1.6221,-1.6223,-1.6222,-1.6224,-1.6219,-1.6218,-1.6219,-1.6222,-1.6221,-1.6222,-1.6224,-1.6226,-1.6222,-1.6222,-1.6225,-1.6221,-1.6225,-1.6224,-1.6223,-1.6206,-1.6204,-1.6228,-1.6228,-1.6228,-1.6228,-1.6228,-1.6228,-1.6233,-1.6238,-1.6236,-1.6241,-1.6239,-1.6242,-1.6242,-1.6242,-1.6241,-1.6245,-1.6246,-1.6244,-1.6241,-1.6242,-1.6243,-1.6242,-1.6242,-1.6247,-1.6244,-1.6227,-1.6225,-1.6222,-1.622,-1.6247,-1.6247,-1.6262,-1.6262,-1.6262]},{"header":{"parameterUnit":"m.s-1","parameterCategory":1,"la1":30.2991,"la2":30.254,"lo1":-89.0895,"lo2":-89.0444,"dy":0.0017,"dx":0.0017,"nx":28,"ny":28,"refTime":"2025-12-28T09:00:00:Z","depth":0,"parameterNumber":3,"parameterNumberName":"V-component_of_WINDS"},"data":[0,0,0,0,0,0,0,0,0,0,0,0,0,0,0,0,0,0,0,0,0,0,0,0,0,0,0,0,0,0,0,0,0,0,0,0,0,0,0,0,0,0,0,0,0,0,0,0,0,0,0,0,0,0,0,0,0,0,1.982,1.9822,0,1.997,1.9972,1.9974,2.0064,2.0064,2.0064,2.0065,2.0213,2.0216,2.022,0,0,0,0,0,0,0,0,0,0,0,0,0,1.9608,1.9612,1.982,1.9822,1.9824,1.997,1.9972,1.9974,2.0063,2.0064,2.0065,2.0065,2.0212,2.0216,2.022,0,0,0,0,0,0,0,0,0,0,0,0,0,1.9723,1.9613,1.982,1.9886,1.9894,1.997,1.9972,1.9975,2.0063,2.0064,2.0065,2.0065,2.021,2.0215,2.0221,2.024,0,0,2.0237,2.0239,0,0,0,0,0,0,0,0,1.9717,1.9731,1.9875,1.9882,1.989,1.9999,1.9952,2.0063,2.0063,1.9999,2.0065,2.0066,2.0141,2.0152,2.0178,2.0247,2.0254,2.0237,2.024,2.0243,2.0244,0,0,0,0,0,0,0,1.9709,1.9725,1.9879,1.9876,1.9886,1.9908,1.9925,1.9973,2.0064,2.0004,2.0011,2.0028,2.0145,2.0173,2.0182,2.0256,2.0237,2.0242,2.0245,2.0247,2.0353,2.0352,0,0,0,0,0,0,1.9691,1.9718,1.9875,1.9884,1.9803,1.9911,1.993,1.9963,2.0064,2.008,2.0027,2.0032,2.0164,2.0176,2.0188,2.0221,2.0243,2.0248,2.0251,2.0353,2.0352,2.0352,0,0,0,0,0,0,1.9686,1.9704,1.9869,1.9803,1.9826,1.9914,1.9951,1.9966,1.9994,2.0081,2.0098,2.004,2.0165,2.0181,2.0228,2.0227,2.025,2.0255,2.0353,2.0353,2.0352,2.0284,0,0,0,0,0,0,1.9679,1.9701,1.971,1.9802,1.9829,1.9907,1.995,1.9968,2.0004,2.0011,2.0097,2.0112,2.0166,2.022,2.0233,2.0235,2.0259,2.0354,2.0353,2.0352,2.0287,2.0282,2.0277,0,0,0,0,0,1.9671,1.9683,1.971,1.9728,1.9842,1.9906,1.9921,1.9986,2.0003,2.0013,2.007,2.0109,2.0225,2.0224,2.024,2.0243,2.0354,2.0353,2.0353,2.0289,2.0283,2.0277,0,0,0,0,0,0,1.9585,1.9696,1.9727,1.9769,1.9828,1.9921,1.9935,1.9976,2.0029,2.0033,2.0109,2.0128,2.0168,2.021,2.0207,2.0269,2.0294,2.0296,2.0241,2.0235,2.023,2.0219,2.0263,0,0,0,0,0,1.9572,1.9616,1.971,1.9738,1.9766,1.9845,1.9876,1.9921,1.9984,2.0008,2.0068,2.0127,2.0177,2.0208,2.0258,2.0293,2.0315,2.0304,2.0298,2.0294,2.0295,2.032,2.0317,2.0349,2.0349,2.0349,0,0,1.9543,1.9609,1.9632,1.9722,1.9773,1.9818,1.9866,1.9909,1.9943,2.0014,2.0065,2.0111,2.0181,2.0223,2.0245,2.0259,2.0291,2.0293,2.0288,2.0293,2.0319,2.0316,2.0313,2.0349,2.0349,2.0349,0,0,1.9514,1.9567,1.9599,1.965,1.9727,1.9781,1.9788,1.9876,1.9911,1.9963,2.0019,2.0059,2.0142,2.0192,2.0227,2.0221,2.026,2.0235,2.0208,2.0231,2.0229,2.0227,2.0227,2.0226,2.0236,2.0236,2.0235,0,1.9468,1.9538,1.9609,1.9651,1.969,1.976,1.9793,1.9838,1.9927,1.9952,1.9968,2.0077,2.0129,2.0186,2.0185,2.021,2.0222,2.0226,2.0224,2.0223,2.0222,2.0223,2.0222,2.0232,2.0233,2.0233,2.0233,0,1.9479,1.9527,1.9543,1.9631,1.9672,1.9708,1.9784,1.9817,1.9859,1.9911,1.9964,2.0029,2.0096,2.0112,2.0152,2.0175,2.0182,2.021,2.0236,2.0214,2.0217,2.0217,2.0227,2.0229,2.023,2.023,0,0,1.9398,1.9528,1.9533,1.9575,1.9668,1.9706,1.9746,1.9815,1.9842,1.9901,1.9938,2.0009,2.0037,2.0077,2.0123,2.0143,2.0138,2.0169,2.0172,2.0163,2.017,2.015,2.0149,2.0164,2.0165,2.0165,2.0165,0,1.9384,1.9463,1.953,1.9584,1.963,1.9699,1.9735,1.9795,1.9845,1.9891,1.9945,1.9996,2.0027,2.0053,2.0076,2.0133,2.014,2.0134,2.0199,2.0201,2.0181,2.015,2.0128,2.0125,2.0166,2.0166,2.0166,0,1.9378,1.9439,1.9498,1.959,1.9612,1.9643,1.9713,1.9756,1.9826,1.9861,1.9909,1.9958,2.0004,2.0026,2.0092,2.0086,2.0117,2.0149,2.0151,2.016,2.0183,2.016,2.0126,2.0126,2.0168,2.0168,2.0168,0,1.9317,1.9413,1.9462,1.9496,1.9603,1.9624,1.9669,1.974,1.9778,1.9838,1.9864,1.9927,1.9962,2.001,2.0075,2.0085,2.0135,2.0161,2.0166,2.0164,2.0174,2.0172,2.0145,2.019,2.019,2.019,2.019,0,1.9295,1.9329,1.9437,1.9466,1.9508,1.9584,1.9622,1.9673,1.9736,1.9778,1.9839,1.9876,1.996,2.0007,2.0058,2.0106,2.0121,2.0151,2.0164,2.0146,2.0143,2.0168,2.017,2.019,2.019,2.019,2.019,0,1.9233,1.9306,1.9365,1.9463,1.9488,1.9514,1.9598,1.963,1.9685,1.9736,1.9753,1.9838,1.9897,1.9967,2.0047,2.0082,2.0126,2.0145,2.0103,2.0111,2.0113,2.0112,2.0102,2.0105,2.0146,2.0145,2.0145,0,1.9215,1.9244,1.9346,1.938,1.9424,1.9477,1.9517,1.9593,1.9632,1.9717,1.9739,1.9804,1.986,1.9951,2.0019,2.0082,2.0104,2.0096,2.0113,2.0095,2.0106,2.0104,2.0109,2.0091,2.009,2.009,2.0089,0,1.9176,1.9212,1.9269,1.9339,1.9386,1.9444,1.9505,1.9528,1.9617,1.9658,1.9721,1.9765,1.985,1.9913,1.9986,2.0031,2.0075,2.0083,2.0088,2.007,2.0046,2.0062,2.0092,2.0083,2.0084,2.0084,2.0084,2.0085,1.9137,1.9168,1.9246,1.9308,1.9362,1.9418,1.9455,1.9515,1.957,1.9647,1.9689,1.9751,1.9823,1.9926,1.997,2.002,2.0035,2.0041,2.0043,2.0043,2.0039,2.0037,2.0033,2.0033,2.0033,2.0033,2.0033,0,1.9104,1.9159,1.9215,1.93,1.9349,1.9389,1.9459,1.9497,1.9552,1.9617,1.9672,1.9746,1.9809,1.9883,1.9951,1.9976,1.9999,1.9992,1.9991,2.0002,2.0021,2.0011,1.9973,1.9973,1.9973,1.9973,1.9973,1.9973,1.9092,1.9147,1.9192,1.9275,1.9329,1.9393,1.943,1.9482,1.9535,1.9615,1.9669,1.9719,1.9788,1.9862,1.9921,1.9942,1.9964,1.9952,1.9978,1.9995,2.0,2.0005,1.9996,1.9956,1.9956,1.9955,1.9955,1.9955]}]]